STARLINK-36416, 67630

Orbit data source: Space-Track

STARLINK-36416, 67630 is a payload satellite owned by SpaceX/Seattle (US) in LEO that was launched on Fri, 30 Jan 2026 UTC via an FALCON 9 launch vehicle from the Air Force Eastern Test Range (AFETR). Payload-class satellites include a variety of spacecraft equipped with specific instruments for various scientific and technological missions. These include communications satellites like Starlink; space stations such as the ISS; scientific satellites like the Hubble; Earth observation satellites from companies like Planet Labs, Umbra, and HawkEye 360; GPS; miniature CubeSats for education and research; and military/defense satellites.

Loading next visibility...
Identifier
67630, 2026-020P
Orbit
LEO
Country
Flag of USUS
Related business
Manufacturer
SpaceX/Seattle
Mission
Operational spacecraft
Bus & Motor
STARLINK V2MO, Unknown motor
Mass
575 kg wet, ~530 kg dry
Launch date (UTC)
2026-01-30 (1 week ago)
Launch vehicle
FALCON 9
Launch site
Air Force Eastern Test Range (AFETR)
Object type
Payload
Rocket body
Debris
Shape & HBR
Unknown
Radar Cross Section
RCS unknown

Expand to show TLE details & history
Last TLE update: 9 hours ago

TLE from 9 hours ago
0 STARLINK-36416
1 67630U 26020P   26037.58335648 -.01948586  10286-2 -57116-2 0  9996
2 67630  43.0002 331.5111 0001831 262.7396  90.6823 15.91966577  2394
Epoch: 2026-02-06T14:00Z
TLE epoch observation values (Epoch: 2026-02-06T14:00:01.999Z)
Latitude
-4.55358°
Longitude
-20.08794°
Altitude
297.267 km
Speed
7.731 km/s
True Right ascension
21h 46m 33s
True Declination
-4° 31' 28"
Sunlit
Object was in daylight at epoch
Visualization orbit readout
Latitude
Unknown
Longitude
Unknown
Altitude
Unknown
Speed
Unknown
Apparent Right ascension
Unknown
Apparent Declination
Unknown
Sunlit
N/A
Visualization observer readout
Local Sidereal Time
00:46:55
Azimuth
Unknown
Elevation
Unknown
Doppler factor
Unknown
Orbital elements
Apogee altitude
300.002 km
Perigee altitude
297.557 km
Semi-major axis
6,676.916 km
Eccentricity
0.00018
Inclination
43.0002°
RAAN
331.5111°
Arg. of periapsis
262.7396°
True anomaly
90.70328°
Mean anomaly
90.6823°
Eccentric anomaly
90.69279°
Mean motion
3.97813 °/min
Orbital period
90.49 mins
BSTAR
-0.0057116
Loading maneuver chart data...
Computing Atmospheric mass density...
Loading historical data...
Loading historical data...
Loading historical data...
Loading historical data...
Loading historical data...
Loading historical data...
Loading historical data...

Documentation

Showing up to 5 results
|